[[{"header":{"parameterUnit":"m.s-1","parameterCategory":2,"la1":30.2992,"la2":30.254,"lo1":-89.0895,"lo2":-89.0443,"dy":0.0025,"dx":0.0025,"nx":19,"ny":19,"refTime":"2026-04-23T09:00:00:Z","depth":"0","parameterNumber":2,"parameterNumberName":"U-component_of_CURRENTS"},"data":[0,0,0,0.3407,0.3408,0.3459,0.3459,0.361,0.3612,0,0,0,0,0,0,0,0,0,0,0,0.3373,0.3373,0.3407,0.3408,0.3459,0.3459,0.361,0.3612,0,0,0,0,0,0,0,0,0,0,0,0.3373,0.3373,0.3373,0.3408,0.3459,0.3459,0.361,0.355,0,0,0,0,0,0,0,0,0,0,0.349,0.3456,0.3373,0.3373,0.3409,0.3459,0.3459,0.3546,0.3554,0.3612,0,0.3606,0,0.3623,0.3624,0.3625,0,0,0,0.3408,0.3449,0.3457,0.3373,0.3409,0.3459,0.3436,0.355,0.3558,0.3623,0.3608,0.3614,0.3626,0.3625,0.3626,0.3872,0.3874,0,0,0.3405,0.3396,0.345,0.3461,0.3407,0.3434,0.3438,0.3554,0.3563,0.3609,0.3617,0.3628,0.3626,0.3628,0.3871,0.3873,0,0,0,0.3397,0.3394,0.3397,0.3455,0.3464,0.3436,0.344,0.3557,0.3556,0.3619,0.363,0.3627,0.363,0.387,0.3872,0.3943,0,0,0,0.3396,0.339,0.3395,0.3393,0.346,0.3503,0.3441,0.3547,0.3561,0.3629,0.3628,0.3631,0.3868,0.3871,0.3938,0.3924,0,0,0,0.3374,0.3389,0.3387,0.3392,0.3415,0.3501,0.3506,0.3549,0.3569,0.3625,0.3632,0.3867,0.387,0.3934,0.3918,0.4004,0,0,0,0.3374,0.3417,0.3386,0.3444,0.3414,0.3511,0.3505,0.358,0.3631,0.3628,0.3868,0.3871,0.3932,0.3915,0.4,0.3912,0.3925,0,0,0.3442,0.3425,0.3463,0.3437,0.3511,0.3504,0.3638,0.3686,0.3704,0.3832,0.3837,0.394,0.3918,0.4003,0.4097,0.4103,0,0,0,0.3495,0.3495,0.3522,0.3543,0.3602,0.3658,0.3719,0.3776,0.3887,0.3749,0.3985,0.3969,0.402,0.396,0.3967,0.3847,0.3886,0.3886,0.3885,0.3531,0.3548,0.3598,0.3626,0.3682,0.3785,0.3868,0.3956,0.398,0.4055,0.4063,0.4217,0.4157,0.4161,0.404,0.4128,0.4128,0.4128,0.4129,0.3585,0.3576,0.3611,0.3659,0.372,0.3816,0.3999,0.4055,0.4234,0.4198,0.4247,0.4081,0.4172,0.4041,0.4134,0.4133,0.4132,0.4132,0.4131,0.3538,0.3535,0.3575,0.363,0.3704,0.3823,0.3969,0.4132,0.4251,0.4327,0.4278,0.4275,0.4127,0.4369,0.4369,0.437,0.437,0.437,0.437,0.3455,0.3499,0.3524,0.3599,0.3632,0.3745,0.398,0.4116,0.4276,0.433,0.433,0.4168,0.429,0.4242,0.4376,0.4375,0.4374,0.4374,0.4373,0.3364,0.3388,0.3429,0.3468,0.3571,0.3605,0.386,0.4066,0.425,0.4297,0.4197,0.4353,0.4315,0.4308,0.4262,0.4393,0.4393,0.4393,0.4393,0.3277,0.3303,0.3318,0.3362,0.3437,0.3532,0.3569,0.3774,0.4011,0.4052,0.4142,0.4048,0.4053,0.3995,0.3994,0.394,0.3987,0.3986,0.3986,0.3226,0.3244,0.3207,0.3256,0.334,0.3382,0.3301,0.3313,0.368,0.3961,0.4,0.4017,0.3871,0.3888,0.3785,0.3794,0.3701,0,0]},{"header":{"parameterUnit":"m.s-1","parameterCategory":2,"la1":30.2992,"la2":30.254,"lo1":-89.0895,"lo2":-89.0443,"dy":0.0025,"dx":0.0025,"nx":19,"ny":19,"refTime":"2026-04-23T09:00:00:Z","depth":"0","parameterNumber":3,"parameterNumberName":"V-component_of_CURRENTS"},"data":[0,0,0,0.0474,0.0475,0.0476,0.0476,0.0403,0.0402,0,0,0,0,0,0,0,0,0,0,0,0.0467,0.0467,0.0474,0.0475,0.0476,0.0476,0.0403,0.0402,0,0,0,0,0,0,0,0,0,0,0,0.0467,0.0467,0.0467,0.0475,0.0476,0.0476,0.0403,0.0418,0,0,0,0,0,0,0,0,0,0,0.0424,0.0434,0.0467,0.0467,0.0475,0.0476,0.0476,0.0419,0.0417,0.0386,0,0.0393,0,0.0403,0.0397,0.0397,0,0,0,0.0461,0.0436,0.044,0.0468,0.0475,0.0476,0.0471,0.0418,0.0415,0.0383,0.0392,0.039,0.0402,0.0397,0.0396,0.0418,0.0419,0,0,0.0461,0.046,0.0442,0.0438,0.0483,0.0471,0.0472,0.0417,0.0414,0.0392,0.0389,0.0401,0.0396,0.0396,0.0418,0.0419,0,0,0,0.047,0.046,0.0466,0.044,0.0451,0.0472,0.0472,0.0416,0.0419,0.0389,0.04,0.0396,0.0395,0.0417,0.0418,0.0522,0,0,0,0.0469,0.0466,0.0466,0.0464,0.0453,0.0444,0.0472,0.0423,0.0418,0.0401,0.0396,0.0394,0.0416,0.0417,0.0517,0.0618,0,0,0,0.0466,0.0466,0.047,0.0465,0.0473,0.0446,0.0446,0.0422,0.0425,0.0397,0.0394,0.0415,0.0417,0.0513,0.0609,0.0697,0,0,0,0.0459,0.0475,0.047,0.0497,0.0473,0.0513,0.0446,0.0464,0.0451,0.0395,0.0416,0.0418,0.0512,0.0603,0.0691,0.0786,0.0821,0,0,0.0477,0.0476,0.0497,0.0493,0.0555,0.0511,0.057,0.0522,0.0467,0.0423,0.0424,0.0519,0.0608,0.0696,0.0899,0.0932,0,0,0,0.0503,0.0526,0.0544,0.0577,0.0592,0.0635,0.059,0.0578,0.0559,0.0471,0.053,0.0585,0.0636,0.068,0.0706,0.0549,0.0427,0.0427,0.0427,0.054,0.0563,0.0626,0.0666,0.0694,0.0715,0.0748,0.0722,0.0632,0.0653,0.0675,0.0829,0.0876,0.0897,0.0733,0.0651,0.0652,0.0652,0.0652,0.0629,0.0679,0.0717,0.0783,0.0819,0.0859,0.0893,0.0862,0.0905,0.0797,0.0839,0.0796,0.0932,0.0747,0.0659,0.0658,0.0657,0.0657,0.0656,0.0682,0.071,0.0753,0.0862,0.0953,0.0987,0.1136,0.1107,0.104,0.1088,0.1112,0.111,0.0944,0.1087,0.1088,0.1089,0.1089,0.109,0.109,0.0717,0.0767,0.0865,0.0966,0.1054,0.1187,0.1296,0.136,0.1366,0.1288,0.1288,0.0997,0.0962,0.0942,0.1103,0.1101,0.1099,0.1098,0.1097,0.0803,0.0813,0.0974,0.1072,0.1296,0.1511,0.1588,0.1729,0.1731,0.1748,0.1321,0.1383,0.1371,0.1349,0.1338,0.1594,0.1594,0.1594,0.1594,0.0853,0.0869,0.1098,0.1288,0.1505,0.168,0.1997,0.2066,0.1803,0.1603,0.1433,0.1305,0.1292,0.1264,0.1244,0.1226,0.1446,0.1446,0.1445,0.094,0.0997,0.117,0.1345,0.1603,0.1876,0.2196,0.2319,0.1819,0.1415,0.1199,0.1205,0.0982,0.0974,0.0894,0.0879,0.0835,0,0]}],[{"header":{"parameterUnit":"m.s-1","parameterCategory":2,"la1":30.2992,"la2":30.254,"lo1":-89.0895,"lo2":-89.0443,"dy":0.0025,"dx":0.0025,"nx":19,"ny":19,"refTime":"2026-04-23T09:00:00:Z","depth":"2","parameterNumber":2,"parameterNumberName":"U-component_of_CURRENTS"},"data":[0,0,0,0.3018,0.302,0.3114,0.3114,0.3235,0.3236,0,0,0,0,0,0,0,0,0,0,0,0.2987,0.2988,0.3017,0.302,0.3114,0.3114,0.3235,0.3236,0,0,0,0,0,0,0,0,0,0,0,0.2986,0.2988,0.2989,0.3021,0.3114,0.3114,0.3235,0.3161,0,0,0,0,0,0,0,0,0,0,0.3069,0.3039,0.2987,0.2989,0.3021,0.3114,0.3114,0.3157,0.3165,0.3197,0,0.3225,0,0.324,0.3246,0.3246,0,0,0,0.3009,0.3032,0.3066,0.2989,0.3022,0.3113,0.3068,0.3162,0.3171,0.3208,0.3227,0.3231,0.3242,0.3246,0.3247,0.3444,0.3445,0,0,0.3003,0.2994,0.3059,0.3072,0.3065,0.3065,0.3071,0.3167,0.318,0.3227,0.3234,0.3244,0.3247,0.3248,0.3443,0.3444,0,0,0,0.2996,0.299,0.3021,0.3067,0.3088,0.3068,0.3075,0.3176,0.3189,0.3235,0.3245,0.3248,0.325,0.3442,0.3443,0.3552,0,0,0,0.2993,0.2987,0.3019,0.3012,0.3086,0.3132,0.3081,0.3182,0.3194,0.3244,0.3248,0.3251,0.344,0.3443,0.3546,0.3569,0,0,0,0.2979,0.2985,0.3003,0.3012,0.3059,0.3131,0.3148,0.3185,0.32,0.3246,0.3252,0.344,0.3442,0.3541,0.3561,0.3621,0,0,0,0.2954,0.3008,0.3004,0.307,0.3058,0.3162,0.3148,0.3226,0.3272,0.3249,0.3441,0.3443,0.354,0.3557,0.3617,0.3438,0.3446,0,0,0.3009,0.3014,0.3054,0.3053,0.3135,0.3147,0.3245,0.3293,0.3322,0.3404,0.3409,0.3548,0.3561,0.362,0.3593,0.3595,0,0,0,0.3063,0.3086,0.3119,0.3157,0.3221,0.329,0.3325,0.3389,0.3505,0.3364,0.3572,0.3577,0.3611,0.3494,0.3498,0.3456,0.3456,0.3455,0.3455,0.3114,0.313,0.3181,0.3219,0.3287,0.3386,0.3483,0.3571,0.3573,0.3668,0.3685,0.3826,0.3706,0.3705,0.3719,0.3719,0.372,0.372,0.372,0.3148,0.3144,0.3189,0.3249,0.333,0.3421,0.3616,0.3682,0.3857,0.3831,0.3859,0.3637,0.3715,0.3729,0.3728,0.3726,0.3725,0.3725,0.3724,0.3119,0.3109,0.317,0.3251,0.3351,0.3472,0.363,0.3805,0.3932,0.4013,0.3853,0.3847,0.3864,0.402,0.4021,0.4021,0.4021,0.4022,0.4022,0.3033,0.3085,0.3182,0.328,0.335,0.3469,0.3699,0.3817,0.3922,0.3943,0.3941,0.3927,0.3917,0.3881,0.4028,0.4027,0.4026,0.4026,0.4025,0.2969,0.3055,0.3146,0.3249,0.3379,0.3378,0.3599,0.3682,0.3849,0.3835,0.3904,0.3905,0.3843,0.3836,0.3798,0.3916,0.3916,0.3916,0.3916,0.2929,0.2988,0.3071,0.3183,0.3289,0.3315,0.3224,0.3237,0.3451,0.3492,0.351,0.3384,0.3398,0.3303,0.3309,0.3257,0.3234,0.3232,0.3231,0.2915,0.2932,0.295,0.3067,0.3193,0.3146,0.2882,0.2647,0.2843,0.32,0.3348,0.3878,0.3737,0.3743,0.3629,0.3626,0.3555,0,0]},{"header":{"parameterUnit":"m.s-1","parameterCategory":2,"la1":30.2992,"la2":30.254,"lo1":-89.0895,"lo2":-89.0443,"dy":0.0025,"dx":0.0025,"nx":19,"ny":19,"refTime":"2026-04-23T09:00:00:Z","depth":"2","parameterNumber":3,"parameterNumberName":"V-component_of_CURRENTS"},"data":[0,0,0,0.0225,0.0226,0.0242,0.0242,0.0151,0.0151,0,0,0,0,0,0,0,0,0,0,0,0.0223,0.0223,0.0225,0.0226,0.0242,0.0242,0.0152,0.0151,0,0,0,0,0,0,0,0,0,0,0,0.0223,0.0223,0.0224,0.0226,0.0242,0.0242,0.0152,0.0164,0,0,0,0,0,0,0,0,0,0,0.016,0.0173,0.0223,0.0224,0.0226,0.0242,0.0242,0.0166,0.0163,0.0117,0,0.0136,0,0.0143,0.0143,0.0143,0,0,0,0.0212,0.0176,0.0188,0.0224,0.0227,0.0243,0.0231,0.0165,0.0162,0.0113,0.0135,0.0133,0.0142,0.0143,0.0142,0.0123,0.0123,0,0,0.0211,0.021,0.0191,0.0187,0.025,0.0231,0.0232,0.0164,0.0161,0.0135,0.0131,0.014,0.0142,0.0141,0.0122,0.0123,0,0,0,0.0218,0.0209,0.0225,0.019,0.0204,0.0231,0.0233,0.0164,0.0173,0.013,0.0139,0.0141,0.014,0.0121,0.0122,0.0259,0,0,0,0.0217,0.0214,0.0225,0.0222,0.0206,0.0198,0.0234,0.0178,0.0171,0.014,0.0141,0.0139,0.0121,0.0122,0.0253,0.0361,0,0,0,0.0219,0.0214,0.0225,0.0222,0.0237,0.02,0.0204,0.0177,0.0176,0.0143,0.0138,0.012,0.0122,0.0249,0.0351,0.0418,0,0,0,0.0203,0.023,0.0225,0.0263,0.0237,0.028,0.0205,0.0219,0.0202,0.0141,0.0121,0.0122,0.0247,0.0345,0.0412,0.0443,0.0473,0,0,0.0229,0.0233,0.0259,0.0255,0.0322,0.0276,0.032,0.0262,0.0202,0.013,0.0131,0.0255,0.0351,0.0417,0.0526,0.0554,0,0,0,0.0262,0.0294,0.0314,0.035,0.0364,0.0403,0.0339,0.032,0.0293,0.0201,0.0246,0.0303,0.034,0.0345,0.0367,0.0129,0.0129,0.0129,0.0129,0.0321,0.0339,0.0403,0.044,0.0466,0.0472,0.0501,0.0459,0.0359,0.038,0.0405,0.0545,0.0551,0.0568,0.0368,0.0369,0.0369,0.037,0.037,0.0395,0.0447,0.048,0.0546,0.0585,0.0619,0.0642,0.0612,0.0634,0.0532,0.0559,0.0479,0.0601,0.0381,0.0379,0.0377,0.0376,0.0375,0.0375,0.0447,0.0476,0.0518,0.0623,0.0725,0.0756,0.09,0.0869,0.0794,0.0838,0.0789,0.0786,0.0648,0.0822,0.0823,0.0824,0.0825,0.0825,0.0826,0.0478,0.0526,0.0636,0.0735,0.0844,0.0977,0.1078,0.1125,0.1082,0.098,0.0978,0.0698,0.0683,0.0674,0.0838,0.0836,0.0834,0.0833,0.0832,0.0554,0.0596,0.0756,0.0875,0.1107,0.1304,0.1361,0.1418,0.1399,0.1369,0.104,0.1031,0.0995,0.0974,0.0971,0.1203,0.1203,0.1203,0.1203,0.0623,0.0646,0.0889,0.1092,0.1318,0.1465,0.168,0.161,0.1424,0.1241,0.1239,0.1127,0.1112,0.1073,0.105,0.1044,0.1296,0.1296,0.1296,0.07,0.0768,0.0944,0.1134,0.141,0.1638,0.1811,0.1703,0.1374,0.1295,0.1211,0.1218,0.1041,0.1022,0.0943,0.0915,0.0897,0,0]}],[{"header":{"parameterUnit":"m.s-1","parameterCategory":2,"la1":30.2992,"la2":30.254,"lo1":-89.0895,"lo2":-89.0443,"dy":0.0025,"dx":0.0025,"nx":19,"ny":19,"refTime":"2026-04-23T09:00:00:Z","depth":"4","parameterNumber":2,"parameterNumberName":"U-component_of_CURRENTS"},"data":[0,0,0,0.1477,0.1481,0.1692,0.1693,0.1848,0.1849,0,0,0,0,0,0,0,0,0,0,0,0.1431,0.1432,0.1477,0.1482,0.1692,0.1693,0.1848,0.1849,0,0,0,0,0,0,0,0,0,0,0,0.143,0.1432,0.1434,0.1482,0.1692,0.1693,0.1848,0.1721,0,0,0,0,0,0,0,0,0,0,0.1532,0.1516,0.1431,0.1434,0.1484,0.1691,0.1693,0.1716,0.1729,0.1716,0,0.1769,0,0.1794,0.1856,0.1856,0,0,0,0.1496,0.1506,0.154,0.1435,0.1485,0.1691,0.1601,0.1724,0.1738,0.1732,0.1772,0.1778,0.1796,0.1856,0.1857,0.1991,0.1992,0,0,0.1484,0.1484,0.1531,0.155,0.1564,0.1594,0.1607,0.1734,0.1769,0.1772,0.1782,0.1799,0.1857,0.1858,0.1991,0.1992,0,0,0,0.1441,0.1477,0.1511,0.1543,0.158,0.16,0.1615,0.1765,0.1771,0.1783,0.18,0.1857,0.1859,0.199,0.1991,0.2038,0,0,0,0.1435,0.145,0.1506,0.1511,0.1579,0.1693,0.1643,0.1764,0.1778,0.18,0.1858,0.186,0.1989,0.1991,0.2035,0.2046,0,0,0,0.1416,0.1448,0.1475,0.151,0.1589,0.1692,0.1709,0.1768,0.1786,0.1856,0.186,0.1989,0.199,0.2032,0.2042,0.2157,0,0,0,0.1402,0.1414,0.1477,0.1535,0.1587,0.1675,0.1709,0.1802,0.1865,0.1858,0.1989,0.1991,0.2031,0.2039,0.2153,0.1851,0,0,0,0.138,0.1413,0.1448,0.1506,0.1574,0.1645,0.1741,0.1844,0.1885,0.1939,0.1944,0.2036,0.2041,0.2156,0.1957,0,0,0,0,0.1417,0.1451,0.1484,0.157,0.1637,0.1726,0.1821,0.1873,0.1992,0.1929,0.2059,0.2061,0.2133,0.1945,0.2,0.1999,0.1999,0.1999,0.1999,0.1388,0.1451,0.1504,0.159,0.1664,0.1796,0.1883,0.1978,0.2007,0.2079,0.2117,0.2256,0.2058,0.2141,0.2142,0.2142,0.2142,0.2142,0.2142,0.1312,0.1345,0.1488,0.155,0.1689,0.1806,0.1959,0.2033,0.2197,0.2172,0.2241,0.2025,0.2147,0.2146,0.2146,0.2145,0.2145,0.2144,0.2144,0.1261,0.127,0.1366,0.1425,0.1668,0.1831,0.2004,0.214,0.225,0.2325,0.2203,0.2317,0.2297,0.2409,0.2409,0.241,0.2411,0.2411,0.2411,0.1116,0.1205,0.1229,0.1338,0.148,0.1705,0.2054,0.2161,0.2308,0.2232,0.2384,0.2347,0.2338,0.2315,0.242,0.2419,0.2417,0.2417,0.2416,0.0983,0.1032,0.102,0.111,0.1335,0.151,0.1904,0.2093,0.2206,0.2198,0.2193,0.2202,0.2171,0.2167,0.2136,0.2193,0.2189,0.2186,0,0.087,0.089,0.0943,0.1019,0.1083,0.141,0.1569,0.178,0.193,0.1859,0.2138,0.2122,0.2129,0.208,0.2073,0.2026,0,0,0,0.0737,0.082,0.0836,0.0922,0.1017,0.1269,0.1607,0.1612,0.1942,0.1949,0.2099,0.2122,0.2244,0.2446,0.2421,0.2411,0.2373,0,0]},{"header":{"parameterUnit":"m.s-1","parameterCategory":2,"la1":30.2992,"la2":30.254,"lo1":-89.0895,"lo2":-89.0443,"dy":0.0025,"dx":0.0025,"nx":19,"ny":19,"refTime":"2026-04-23T09:00:00:Z","depth":"4","parameterNumber":3,"parameterNumberName":"V-component_of_CURRENTS"},"data":[0,0,0,0.0036,0.0037,0.0035,0.0035,-0.0061,-0.0062,0,0,0,0,0,0,0,0,0,0,0,0.0033,0.0034,0.0036,0.0037,0.0035,0.0035,-0.0061,-0.0062,0,0,0,0,0,0,0,0,0,0,0,0.0033,0.0033,0.0034,0.0037,0.0035,0.0035,-0.0061,-0.004,0,0,0,0,0,0,0,0,0,0,-0.0028,-0.0015,0.0033,0.0034,0.0037,0.0035,0.0035,-0.0038,-0.0041,-0.0083,0,-0.0073,0,-0.0064,-0.007,-0.007,0,0,0,0.0023,-0.0012,-0.0006,0.0034,0.0037,0.0035,0.0032,-0.0039,-0.0043,-0.0088,-0.0074,-0.0077,-0.0066,-0.007,-0.0071,-0.0099,-0.0099,0,0,0.0023,0.0021,-0.0003,-0.0008,0.0048,0.0032,0.0032,-0.004,-0.0046,-0.0074,-0.0079,-0.0068,-0.0071,-0.0072,-0.01,-0.0099,0,0,0,0.0032,0.0021,0.003,-0.0005,0.0005,0.0032,0.0032,-0.0043,-0.0037,-0.008,-0.0069,-0.0072,-0.0073,-0.0101,-0.01,0.0013,0,0,0,0.0032,0.0028,0.0031,0.0028,0.0008,-0.0006,0.0031,-0.0032,-0.004,-0.0068,-0.0072,-0.0074,-0.0101,-0.01,0.0009,0.0054,0,0,0,0.0031,0.0028,0.0033,0.0028,0.0035,-0.0004,-0.0003,-0.0033,-0.0033,-0.007,-0.0074,-0.0101,-0.01,0.0005,0.0047,0.0086,0,0,0,0.0021,0.0056,0.0033,0.0078,0.0036,0.007,-0.0002,-0.0006,-0.0029,-0.0072,-0.0101,-0.01,0.0004,0.0043,0.0083,0.0093,0,0,0,0.0066,0.006,0.0092,0.0073,0.0134,0.0068,0.0109,0.0036,-0.0028,-0.0088,-0.0088,0.001,0.0046,0.0086,0.0163,0,0,0,0,0.0108,0.0129,0.0144,0.0173,0.0179,0.0178,0.0116,0.0084,0.0039,-0.0033,0.0003,0.0022,0.0043,0.0037,-0.0094,-0.0094,-0.0094,-0.0094,-0.0095,0.0166,0.0184,0.0236,0.0256,0.027,0.0244,0.0233,0.0172,0.0105,0.0104,0.0109,0.0208,0.0207,0.0103,0.0103,0.0104,0.0104,0.0105,0.0105,0.0241,0.0272,0.0294,0.0348,0.0351,0.0369,0.0335,0.0294,0.0271,0.0203,0.0219,0.015,0.0116,0.0114,0.0112,0.0111,0.011,0.0109,0.0109,0.027,0.0286,0.0329,0.0405,0.0452,0.0449,0.0502,0.0449,0.0374,0.0387,0.0357,0.0276,0.0271,0.0395,0.0396,0.0396,0.0396,0.0397,0.0397,0.0276,0.0323,0.0397,0.0463,0.0525,0.0588,0.0601,0.0594,0.0523,0.0481,0.0419,0.0305,0.0295,0.0286,0.0403,0.0402,0.0401,0.0401,0.04,0.0306,0.0342,0.0453,0.053,0.0665,0.0709,0.074,0.0702,0.0693,0.0638,0.0517,0.0509,0.0463,0.045,0.0443,0.0612,0.0613,0.0613,0,0.0322,0.0347,0.0509,0.0644,0.0757,0.0787,0.0829,0.0799,0.0681,0.0672,0.0655,0.052,0.0513,0.0459,0.0447,0.0441,0,0,0,0.035,0.04,0.0508,0.0649,0.0787,0.0816,0.0832,0.0805,0.0718,0.0691,0.0628,0.0624,0.0509,0.0422,0.0332,0.0321,0.03,0,0]}]]